Weather History for Des Moines, IA

Change the Weather History Date:

Wednesday, January 9, 2013

  Actual Average Record
Temperature  
Mean Temperature 39 °F 22 °F  
Max Temperature 48 °F 31 °F 57 °F (2002)
Min Temperature 29 °F 14 °F -24 °F (1886)
Degree Days  
Heating Degree Days 26 43  
Month to date heating degree days 347 380  
Since 1 July heating degree days 2498 2847  
Cooling Degree Days 0 0  
Month to date cooling degree days 0 0  
Year to date cooling degree days 0 0  
Moisture  
Dew Point 28 °F    
Average Humidity 73    
Maximum Humidity 92    
Minimum Humidity 53    
Precipitation  
Precipitation 0.00 in 0.03 in 0.52 in (1901)
Month to date precipitation T 0.29  
Year to date precipitation T 0.29  
Snow  
Snow 0.00 in 0.30 in 7.30 in (1957)
Month to date snowfall 0.1 2.3  
Since 1 July snowfall 15.6 14.2  
Snow Depth 4.00 in    
Sea Level Pressure  
Sea Level Pressure 30.36 in    
Wind  
Wind Speed 7 mph (SW)    
Max Wind Speed 18 mph    
Max Gust Speed 23 mph    
Visibility 10 miles    
Events      
T = Trace of Precipitation, MM = Missing Value Source: NWS Daily Summary

Daily Weather History Graph

Daily Weather History Graph

Search for Another Location

Airport:

Trip Planner

Search our weather history database for the weather conditions in past years. The results will help you decide how hot, cold, wet, or windy it might be!

Date:

Astronomy

Jan. 09, 2013 Rise Set
Actual Time 7:40 AM CST 5:03 PM CST
Civil Twilight 7:09 AM CST 5:34 PM CST
Nautical Twilight 6:35 AM CST 6:08 PM CST
Astronomical Twilight 6:01 AM CST 6:42 PM CST
Moon 5:20 AM CST (1/9) 3:05 PM CST (1/9)
Length of Visible Light 10h 24m
Length of Day
9h 22m
Waning Crescent, 6% of the Moon is Illuminated
Jan 9
Waning Crescent
Jan 11
New
Jan 18
First Quarter
Jan 26
Full
Feb 3
Last Quarter

Hourly Weather History & Observations

Time (CST) Temp. Windchill Dew Point Humidity Pressure Visibility Wind Dir Wind Speed Gust Speed Precip Events Conditions
12:54 AM 35.1 °F 27.4 °F 28.9 °F 78% 30.13 in 10.0 mi West 10.4 mph - N/A   Clear
1:54 AM 34.0 °F 28.0 °F 28.0 °F 79% 30.16 in 10.0 mi West 6.9 mph - N/A   Clear
2:54 AM 33.1 °F 26.1 °F 27.0 °F 78% 30.19 in 10.0 mi West 8.1 mph - N/A   Clear
3:54 AM 35.1 °F 29.3 °F 28.0 °F 76% 30.20 in 10.0 mi West 6.9 mph - N/A   Clear
4:54 AM 36.0 °F 29.0 °F 28.9 °F 76% 30.24 in 10.0 mi West 9.2 mph - N/A   Clear
5:54 AM 34.0 °F 28.0 °F 28.0 °F 79% 30.27 in 10.0 mi WNW 6.9 mph - N/A   Clear
6:54 AM 32.0 °F 25.6 °F 27.0 °F 82% 30.26 in 10.0 mi West 6.9 mph - N/A   Partly Cloudy
7:54 AM 28.9 °F 23.9 °F 26.1 °F 89% 30.31 in 10.0 mi SSW 4.6 mph - N/A   Scattered Clouds
8:54 AM 32.0 °F 25.6 °F 27.0 °F 82% 30.35 in 10.0 mi SSW 6.9 mph - N/A   Mostly Cloudy
9:54 AM 37.0 °F 26.7 °F 28.9 °F 73% 30.45 in 10.0 mi SW 19.6 mph - N/A   Overcast
10:54 AM 41.0 °F 35.2 °F 30.9 °F 67% 30.46 in 10.0 mi West 9.2 mph - N/A   Overcast
11:54 AM 43.0 °F 38.2 °F 30.9 °F 62% 30.45 in 10.0 mi WNW 8.1 mph - N/A   Mostly Cloudy
12:54 PM 44.1 °F 40.1 °F 30.9 °F 60% 30.43 in 10.0 mi WNW 6.9 mph - N/A   Overcast
1:54 PM 46.9 °F - 30.0 °F 52% 30.41 in 10.0 mi WNW 4.6 mph - N/A   Overcast
2:54 PM 45.0 °F 43.5 °F 28.9 °F 53% 30.41 in 10.0 mi WNW 3.5 mph - N/A   Mostly Cloudy
3:54 PM 45.0 °F 43.5 °F 28.9 °F 53% 30.41 in 10.0 mi East 3.5 mph - N/A   Mostly Cloudy
4:54 PM 41.0 °F 38.0 °F 30.0 °F 65% 30.42 in 10.0 mi SSE 4.6 mph - N/A   Overcast
5:54 PM 37.0 °F 31.6 °F 28.9 °F 73% 30.42 in 10.0 mi SSE 6.9 mph - N/A   Mostly Cloudy
6:54 PM 37.9 °F 32.7 °F 28.9 °F 70% 30.43 in 10.0 mi SSE 6.9 mph - N/A   Scattered Clouds
7:54 PM 37.0 °F 32.4 °F 28.9 °F 73% 30.44 in 10.0 mi SE 5.8 mph - N/A   Scattered Clouds
8:54 PM 36.0 °F 31.1 °F 28.9 °F 76% 30.42 in 10.0 mi East 5.8 mph - N/A   Mostly Cloudy
9:54 PM 37.9 °F 31.5 °F 28.0 °F 68% 30.42 in 10.0 mi SE 9.2 mph - N/A   Scattered Clouds
10:54 PM 37.9 °F 30.9 °F 27.0 °F 65% 30.42 in 10.0 mi SE 10.4 mph - N/A   Scattered Clouds
11:54 PM 36.0 °F 31.1 °F 25.0 °F 64% 30.41 in 10.0 mi SE 5.8 mph - N/A   Partly Cloudy